Terminal Aerodrome Forecast
Issued by NWS Charleston, WV

Current Version | Previous Version | Graphics & Text | Print | Product List | Glossary On
Versions: 1 2 3 4 5 6 7 8 9 10 11 12 13 14 15 16 17 18 19 20 21 22 23 24
556
FTUS41 KRLX 190248 AAA
TAFCRW
TAF AMD
KCRW 190248Z 1903/1924 08006KT P6SM BKN045 BKN080
     FM190900 15004KT P6SM BKN070
     FM191700 20007KT P6SM SHRA VCTS BKN060CB=

USA.gov is the U.S. government's official web portal to all federal, state and local government web resources and services.